Location: Unspecified
(0.0000°N, 0.0000°E)
Time: 06:58:00
(UTC+00:00)

Transit 4A - All Passes

Search period start: 03 October 2023 00:00
Search period end: 13 October 2023 00:00
Orbit: 862 x 981 km, 66.8° (Epoch: 02 October)

Date Brightness Start Highest point End Pass type
(mag) Time Alt. Az. Time Alt. Az. Time Alt. Az.
03 Oct - 08:53:27 10° SSW 08:59:35 86° ESE 09:05:53 10° NNE daylight
03 Oct - 20:06:14 10° N 20:11:32 32° ENE 20:16:42 10° SE night (unlit)
03 Oct - 21:53:20 10° WNW 21:57:33 20° WSW 22:01:44 10° SSW night (unlit)
04 Oct - 07:20:37 10° SE 07:22:37 12° ESE 07:24:36 10° E daylight
04 Oct - 09:02:40 10° SSW 09:08:40 57° WNW 09:14:49 10° N daylight
04 Oct - 20:14:44 10° N 20:20:37 55° ENE 20:26:22 10° SSE visible
04 Oct - 22:05:20 10° W 22:06:39 11° WSW 22:07:58 10° WSW night (unlit)
05 Oct - 07:27:15 10° SSE 07:31:44 21° ESE 07:36:15 10° ENE daylight
05 Oct - 09:12:20 10° SW 09:17:46 33° WNW 09:23:21 10° N daylight
05 Oct - 20:23:40 10° NNW 20:29:42 86° WSW 20:35:35 10° SSE visible
06 Oct - 07:35:16 10° S 07:40:48 36° ESE 07:46:27 10° NE daylight
06 Oct - 09:22:35 10° WSW 09:26:54 20° WNW 09:31:18 10° NNW daylight
06 Oct - 18:50:17 10° NE 18:52:37 12° ENE 18:54:56 10° E visible
06 Oct - 20:32:59 10° NW 20:38:46 50° WSW 20:44:25 10° S visible
07 Oct - 07:43:50 10° S 07:49:52 61° ESE 07:56:04 10° NNE daylight
07 Oct - 09:34:37 10° W 09:36:04 11° WNW 09:37:31 10° NW daylight
07 Oct - 18:57:14 10° NNE 19:01:47 22° ENE 19:06:13 10° ESE visible
07 Oct - 20:42:46 10° NW 20:47:50 29° WSW 20:52:49 10° SSW visible
08 Oct - 07:52:48 10° SSW 07:58:57 81° WNW 08:05:16 10° NNE daylight
08 Oct - 19:05:22 10° N 19:10:54 38° ENE 19:16:17 10° SE visible
08 Oct - 20:53:18 10° WNW 20:56:54 17° WSW 21:00:29 10° SSW visible
09 Oct - 06:18:50 10° SE 06:21:59 14° ESE 06:25:10 10° ENE daylight
09 Oct - 08:02:10 10° SW 08:08:03 48° WNW 08:14:05 10° N daylight
09 Oct - 19:14:01 10° N 19:19:59 66° ENE 19:25:48 10° SSE visible
10 Oct - 06:26:10 10° SSE 06:31:05 25° ESE 06:36:05 10° NE daylight
10 Oct - 08:11:58 10° SW 08:17:09 28° WNW 08:22:27 10° NNW daylight
10 Oct - 19:23:05 10° NNW 19:29:03 73° WSW 19:34:54 10° SSE visible
11 Oct - 06:34:24 10° S 06:40:10 42° ESE 06:46:03 10° NE daylight
11 Oct - 08:22:32 10° WSW 08:26:17 17° WNW 08:30:06 10° NNW daylight
11 Oct - 17:48:44 10° NE 17:52:01 15° ENE 17:55:15 10° ESE daylight
11 Oct - 19:32:31 10° NW 19:38:07 42° WSW 19:43:36 10° S visible
12 Oct - 06:43:07 10° SSW 06:49:14 72° ESE 06:55:31 10° NNE daylight
12 Oct - 17:56:14 10° NNE 18:01:09 26° ENE 18:05:57 10° SE daylight
12 Oct - 19:42:30 10° WNW 19:47:11 24° WSW 19:51:48 10° SSW visible
